This is the latest recevied weather packets stored in our database for station/object DW6201. If no packets are shown the sender has not sent any weather packets the latest 1 day(s).
| Time | Temp. | Humidity | Pressure | Rain* | Wind** | Luminosity | Snow |
|---|---|---|---|---|---|---|---|
| 1778111401 | 7.78° C | 48% | 1017.3 hPa | 0 mm | - | - | - |
| 1778110201 | 7.78° C | 46% | 1017.6 hPa | 0 mm | - | - | - |
| 1778109901 | 7.78° C | 47% | 1017.3 hPa | 0 mm | - | - | - |
| 1778109601 | 7.78° C | 47% | 1017.3 hPa | 0 mm | - | - | - |
| 1778109301 | 7.78° C | 47% | 1017.6 hPa | 0 mm | - | - | - |
| 1778109001 | 7.78° C | 46% | 1017.6 hPa | 0 mm | - | - | - |
| 1778108101 | 8.89° C | 44% | 1017.6 hPa | 0 mm | - | - | - |
| 1778105101 | 8.33° C | 47% | 1017.6 hPa | 0 mm | - | - | - |
| 1778102101 | 7.78° C | 48% | 1017.9 hPa | 0 mm | - | - | - |
| 1778101801 | 7.78° C | 50% | 1017.9 hPa | 0 mm | - | - | - |
| 1778101201 | 7.78° C | 49% | 1017.9 hPa | 0 mm | - | - | - |
| 1778100001 | 7.22° C | 52% | 1018.3 hPa | 0 mm | - | - | - |
| 1778098201 | 7.22° C | 51% | 1018.3 hPa | 0 mm | - | - | - |
| 1778096401 | 6.67° C | 52% | 1018.3 hPa | 0 mm | - | - | - |
| 1778094001 | 5.56° C | 54% | 1018.6 hPa | 0 mm | - | - | - |
| 1778093701 | 5.56° C | 53% | 1018.6 hPa | 0 mm | - | - | - |
| 1778091601 | 5.56° C | 56% | 1019 hPa | 0 mm | - | - | - |
| 1778090401 | 5° C | 55% | 1019 hPa | 0 mm | - | - | - |
| 1778090101 | 5° C | 54% | 1019 hPa | 0 mm | - | - | - |
| 1778089201 | 5.56° C | 55% | 1019 hPa | 0 mm | - | - | - |
| 1778088601 | 5° C | 57% | 1019 hPa | 0 mm | - | - | - |
| 1778088301 | 5° C | 56% | 1019 hPa | 0 mm | - | - | - |
| 1778088001 | 5° C | 56% | 1019 hPa | 0 mm | - | - | - |
| 1778085901 | 4.44° C | 56% | 1019.3 hPa | 0 mm | - | - | - |
| 1778085601 | 5° C | 56% | 1019.3 hPa | 0 mm | - | - | - |
* Rain latest hour (hover to see other rain measurements)
** Current wind speed in m/s (hover to see current wind gust speed)